Weather in Lapino

Russia / Smolensk Oblast     54°25′02″N   33°08′19″E
temp.,
°C
wind,
m/s
gust,
m/s
humid.,
%
clouds,
%
prec.,
mm/h
press.,
hPa
HPBL,
m
23 april, fri
fri2300:00+7s3108915 0.1 1012205
03:00+7s5139072 0.3 1011552
06:00+6wnw3593100 1.6 1011294
09:00+5wsw3692100 5.7 1013730
12:00+8sw4767100 0.7 10131413
15:00+9wsw6849100 0.8 10132086
18:00+8wsw4657100 0.0 10121050
21:00+5wnw3673100 0.1 1013168
24 april, sat
sat2400:00+3wsw247882 0.0 101288
03:00+1w36875 0.0 1011136
06:000w249140 0.0 101194
09:00+4w346996 0.0 1010784
12:00+6nw4461100 1.1 10101345
15:00+6nw6756100 2.4 10101497
18:00+5wnw6959100 0.7 10111390
21:00+2w4107684 0.7 1013256
25 april, sun
sun2500:000wsw4118414 0.0 1014289
03:00−1wsw49905 0.0 1014256
06:00−1wsw4109376 0.0 1013367
09:00+2wsw687995 0.6 1013904
12:00+5wsw6851100 0.8 10131959
15:00+5w6855100 0.9 10131538
18:00+4w576090 0.4 10131425
21:000wsw38805 0.4 1014154
26 april, mon
mon2600:00−1wsw39875 0.0 1014208
03:00−1wsw37916 0.0 1014163
06:00−1wsw27885 0.0 1014182
09:00+4wsw46625 0.0 1014917
12:00+6wsw5654100 0.7 10121708
15:00+6wsw5651100 1.6 10111661
18:00+5sw355897 0.8 10111083
21:00+1wsw3374100 0.9 101139
27 april, tue
tue2700:00−1wsw368739 0.0 1011125
03:00−1wsw359321 0.0 1011114
06:00−1wsw379380 0.0 1011190
09:00+3w467245 0.0 1011975
12:00+6w5750100 0.4 10112010
15:00+7wnw575098 1.2 10111791
18:00+6nw47575 0.4 10121617
21:00+1sw11724 0.4 101410